350  
ASUS41 KAKQ 020611  
RWRAKQ  
 
REGIONAL WEATHER ROUNDUP  
NATIONAL WEATHER SERVICE WAKEFIELD VA  
100 AM EST FRI DEC 02 2022  
 
NOTE: "FAIR" INDICATES FEW OR NO CLOUDS BELOW 12,000 FEET WITH NO  
SIGNIFICANT WEATHER AND/OR S TO VISIBILITY
. * = DENOTES  
STATION MAY NOT REPORT PRECIPITATION (E.G., RAIN,SNOW,ETC.),
 
THUNDER OR FOG.  
 
VAZ042-051-052>054-056-020700-  
NORTHERN VIRGINIA  
 
CITY SKY/WX TMP DP RH WIND PRES REMARKS
 
WASH NATIONAL PTCLDY 36 22 56 E3 30.54S  
DULLES CLEAR 27 19 72 CALM 30.52S  
FORT BELVOIR CLEAR 27 21 79 CALM 30.52S  
QUANTICO CLEAR 32 25 75 NW6 30.54S  
FREDERICKSBRG* CLEAR 28 24 85 CALM 30.51S  
STAFFORD* CLEAR 32 26 80 CALM 30.52S  
WARRENTON CLEAR 22 20 89 CALM 30.52S  
CULPEPER* CLEAR 26 22 86 CALM 30.53S  
MANASSAS* CLEAR 24 21 88 CALM 30.53F  
LEESBURG* CLEAR 28 27 93 CALM 30.53S  
WINCHESTER CLEAR 27 18 69 CALM 30.47F  
FRONT ROYAL* FAIR 28 18 64 CALM 30.48S  
LURAY* FAIR 28 21 74 CALM 30.48S  

 
 
VAZ048-049-060>072-079>083-020700-  
CENTRAL AND SOUTH CENTRAL VIRGINIA  
 
CITY SKY/WX TMP DP RH WIND PRES REMARKS
 
RICHMOND CLEAR 30 22 72 SE3 30.51S  
CHESTERFIELD* FAIR 25 23 92 CALM 30.52R  
PETERSBURG* CLEAR 24 23 94 CALM 30.53R  
HANOVER CLEAR 28 24 85 CALM 30.52S  
TAPPAHANNOCK* CLEAR 26 26 100 CALM 30.53S  
QUINTON* FAIR 27 24 88 CALM 30.52S  
CHARLOTTSVILLE CLEAR 32 19 58 N5 30.49R  
GORDONSVILLE* NOT AVBL  
ORANGE* CLEAR 27 23 86 N3 30.52S  
LOUISA* CLEAR 26 20 80 SE3 30.50S  
BUMPASS* FAIR 29 22 76 CALM 30.50S  
FARMVILLE* CLEAR 24 22 92 CALM 30.49R  
CREWE* FAIR 24 21 91 CALM 30.50R  
FORT PICKETT* FAIR 26 23 87 CALM 30.50S  
CHASE CITY* FAIR 27 23 83 CALM 30.50S  
CLARKSVILLE* FAIR 28 28 100 CALM 30.50S  
SOUTH HILL* CLEAR 27 26 94 CALM 30.56F  
LAWRENCEVILLE* FAIR 29 25 83 CALM 30.52S  
EMPORIA* CLEAR 23 22 93 CALM 30.54S  

 
 
VAZ088>098-020700-  
SOUTHEAST VIRGINIA  
 
CITY SKY/WX TMP DP RH WIND PRES REMARKS
 
NORFOLK CLEAR 34 29 82 SW5 30.51R  
VIRGINIA BEACH CLEAR 29 25 85 CALM 30.51R  
NORFOLK NAVAL CLEAR 33 30 88 CALM 30.52S  
WEST POINT* CLEAR 26 23 91 CALM 30.54R  
SALUDA* FAIR 29 26 86 CALM 30.52S  
NEWPORT NEWS CLEAR 26 25 96 MISG 30.52R  
LANGLEY AFB CLEAR 30 30 99 CALM 30.51R  
FORT EUSTIS CLEAR 32 26 77 CALM 30.50R  
WILLIAMSBURG* NOT AVBL  
HR EXEC AP* FAIR 21 18 86 CALM 30.53R  
FRANKLIN* CLEAR 25 23 93 CALM 30.54R  
US460-WAKEFLD CLEAR 26 23 88 MISG 30.52S  

 
 
VAZ020-022-025-037-045-020700-  
WEST CENTRAL AND SOUTHWEST VIRGINIA  
 
CITY SKY/WX TMP DP RH WIND PRES REMARKS
 
STAUNTON* CLEAR 24 20 83 CALM 30.48F  
WAYNESBORO* FAIR 25 17 73 CALM 30.46S  
HOT SPRINGS VA CLOUDY 38 -16 9 S12G20 30.37F  
LYNCHBURG CLEAR 26 20 77 CALM 30.47F  
DANVILLE CLEAR 25 22 88 MISG 30.50S  
SOUTH BOSTON* FAIR 24 21 89 CALM 30.51F  
MARTINSVILLE CLEAR 23 19 87 CALM 30.50S  
ROANOKE CLEAR 29 20 69 CALM 30.49S  
BLACKSBURG CLEAR 25 19 79 CALM 30.46S  
DUBLIN* CLEAR 25 20 80 CALM 30.43S  
MARION* CLEAR 23 16 73 E3 30.43S  
HILLSVILLE* CLEAR 32 4 31 SE5 30.40R  
RICHLANDS* FAIR 32 12 44 NW3 30.35S  
WISE* CLEAR 34 14 44 SW6 30.36F  
ABINGDON* CLEAR 30 18 61 E5 30.38F  

 
 
MDZ021>025-VAZ099-100-020700-  
SOUTHERN MARYLAND AND THE DELMARVA PENINSULA  
 
CITY SKY/WX TMP DP RH WIND PRES REMARKS
 
PATUXENT RIVER CLEAR 30 23 75 W5 30.53S  
BAY BRIDGE APT CLEAR 35 21 56 NE5 30.53F  
LEONARDTOWN CLEAR 28 23 80 CALM 30.54S  
DOVER CLEAR 29 17 59 NW6 30.51S  
GEORGETOWN CLEAR 27 22 81 CALM 30.53R  
EASTON CLEAR 31 23 72 N6 30.57S  
CAMBRIDGE CLEAR 27 27 100 CALM 30.54R  
SALISBURY CLEAR 26 22 84 CALM 30.52R  
TANGIER FAIR 40 28 60 NE5 30.53R  
OCEAN CITY CLEAR 25 23 92 N3 30.52F  
WALLOPS ISLAND CLEAR 26 22 84 NW3 30.53S  
ACCOMACK* CLEAR 24 22 91 CALM 30.52S  

 
 
NCZ012>017-030>032-020700-  
NORTH CENTRAL AND EASTERN NORTH CAROLINA  
 
CITY SKY/WX TMP DP RH WIND PRES REMARKS
 
ROANOKE RAPIDS FAIR 27 27 100 CALM 30.53R  
RALEIGH CLEAR 30 24 78 CALM 30.50F  
ELIZABETH CITY CLEAR 32 28 85 SW3 30.52S  
AHOSKIE* CLEAR 26 26 100 CALM 30.53S  
EDENTON* CLEAR 31 31 96 CALM 30.53S  
CURRITUCK* CLEAR 31 31 99 CALM 30.51S  
KILL DEVIL HLS CLEAR 46 30 54 N3 30.49S  
MANTEO CLEAR 44 30 57 NE7 30.51S  
CAPE HATTERAS CLEAR 47 36 65 NE6 30.50S  
TARBORO* FAIR 25 24 95 CALM 30.53S  
GOLDSBORO CLEAR 29 25 85 CALM 30.48F  
WASHINGTON NOT AVBL  
GREENVILLE CLEAR 30 30 100 CALM 30.52F  
NEW BERN CLEAR 33 31 92 MISG 30.52F  
WILMINGTON CLEAR 33 28 81 NE7 30.50S  

 
 
VAZ048-020700-  
ELSEWHERE  
 
CITY SKY/WX TMP DP RH WIND PRES REMARKS
 
HARRISBURG PA PTCLDY 28 19 69 CALM 30.50S  
BALTIMORE CLEAR 29 21 72 CALM 30.52F  
ANNAPOLIS CLEAR 37 24 59 N7 30.53F  
ANDREWS AFB CLEAR 26 22 84 CALM 30.51S  
PHILADELPHIA CLEAR 33 20 58 W7 30.53S  
HENDERSON NC CLEAR 25 24 96 CALM 30.50S  
GREENSBORO CLEAR 29 24 82 CALM 30.46F  
ROCKY MOUNT CLEAR 29 25 85 CALM 30.52S  

 
 
VAZ100-020700-  
MARINE  
 
STATION/POSITION TIME TEMP WIND PRES WAVE SWELL
 
AIR SEA DIR/SP/G HT/PER HT/PER  
(UTC) (F) (DEG/KT/KT) (MB) (FT/S) (FT/S)  
CAPE MAY NJ 0530 38 340/ 5/ 8 1033.2F  
LEWES DE 0530 41 48 340/ 8/ 11 1033.5F  
15NM E FENWICK I 0550 43 340/ 10/ 14 1033.2S  
OCEAN-CITY-INLET 0530 35 48 330/ 4/ 5 1033.9S  
44089 WALLOPS IS 0526 54 N/A 2/ 4  
WACHAPREAGUE VA 0524 34 48 340/ 2/ 3 1032.7  
THOMAS POINT MD 0600 38 350/ 9/ 10 1034.8R  
GOOSES REEF MD 0548 38 340/ 10 1035.0R 1  
COVE POINT MD 0530 42 330/ 6/ 10 1034.1S  
SOLOMONS ISLAND 0530 36 51 330/ 4/ 6 1032.5S  
BISHOPS HEAD MD 0530 40 45 30/ 3/ 8 1033.8R  
PINEY POINT MD 0524 60/ 5/ 6 N/A  
POTOMAC MD 0548 40 52 350/ 8/ 10 N/A 0  
CAMBRIDGE MD 0530 38 47 20/ 5/ 5 1033.8S  
LEWISETTA VA 0524 35 49 310/ 2/ 3 1033.8  
RAPPAHANNOCK LGT 0524 60/ 8/ 10 1033.6  
STINGRAY PT 0548 42 52 340/ 10/ 12 N/A 1  
YORK RVR RNG VA 0524 46 40/ 5/ 6 1033.2  
YORKTOWN VA 0524 38 52 230/ 2/ 2 1033.0  
JAMESTOWN VA 0548 35 30/ 2/ 2 N/A 0  
DOMINION TERM VA 0524 43 30/ 4/ 4 1033.1  
KIPTOPEKE VA 0524 55 70/ 5/ 6 N/A  
CHES BAY BRIDGE 0524 45 70/ 8/ 10 1032.1  
CAPE HENRY VA 0524 46 30/ 8/ 10 1033.3  
WILLOUBY STN VA 0524 46 30/ 5/ 6 1033.2  
S CRANEY ISL VA 0524 39 210/ 1/ 2 1032.8  
CAPE HENRY BUOY 0556 56 N/A 3/ 6  
1ST LANDING BUOY 0548 44 53 40/ 10/ 14 1034.1R 1/ 2  
DUCK PIER NC 0524 49 57 10/ 10/ 16 1032.4  
44100 DUCK FRF 0556 59 N/A 4/ 5  
44056 DUCK FRF 0526 59 N/A 4/ 6  
OREGON INLET NC 0524 48 55 40/ 9/ 13 1032.6F  
HATTERAS NC 0524 49 57 30/ 10/ 13 1032.9  
DIAMOND SHLS NC 0550 76 40/ 12/ 17 1032.2S  
CAPE LOOKOUT NC 0500 49 360/ 10/ 12 1033.1F  

 
 
 
CLICK HERE TO GO TO PREVIOUS BULLETINS.

The Nexlab VA Page
The Nexlab NC Page
The Nexlab MD Page Main Text Page